Location: Greenwich
(51.4790°N, 0.0090°E)
Time: 20:59:02
(UTC+01:00)

SR - Visible Passes

Search period start: 17 June 2025 00:00
Search period end: 27 June 2025 00:00
Orbit: 570 x 855 km, 66.7° (Epoch: 17 June)

Date Brightness Start Highest point End Pass type
(mag) Time Alt. Az. Time Alt. Az. Time Alt. Az.
17 Jun ? 01:00:43 10° NNW 01:05:17 28° NNE 01:09:33 10° E visible
17 Jun ? 02:42:27 10° NW 02:47:39 80° SW 02:52:22 10° SSE visible
17 Jun ? 22:23:16 10° NW 22:26:37 16° N 22:29:50 10° NNE visible
18 Jun ? 00:06:22 10° NNW 00:10:22 21° NNE 00:14:09 10° ENE visible
18 Jun ? 01:48:05 10° NW 01:53:15 57° NE 01:57:58 10° SE visible
18 Jun ? 03:30:23 10° NW 03:34:39 28° WSW 03:38:38 10° S visible
18 Jun ? 23:11:49 10° NNW 23:15:18 17° NNE 23:18:38 10° NE visible
19 Jun ? 00:53:48 10° NNW 00:58:38 35° NE 01:03:04 10° ESE visible
19 Jun ? 02:35:38 10° NW 02:40:39 55° WSW 02:45:13 10° SSE visible
19 Jun ? 22:16:55 10° NW 22:20:10 16° N 22:23:18 10° NE visible
19 Jun ? 23:59:30 10° NNW 00:03:48 24° NNE 00:07:50 10° E visible
20 Jun ? 01:41:11 10° NW 01:46:24 79° NE 01:51:07 10° SE visible
20 Jun ? 03:24:00 10° WNW 03:27:26 19° WSW 03:30:34 10° SSW visible
20 Jun ? 23:05:05 10° NNW 23:08:48 19° NNE 23:12:20 10° ENE visible
21 Jun ? 00:46:52 10° NNW 00:51:54 45° NE 00:56:29 10° ESE visible
21 Jun ? 02:28:55 10° NW 02:33:34 37° WSW 02:36:43 17° S visible
21 Jun ? 22:10:24 10° NNW 22:13:42 16° N 22:16:52 10° NE visible
21 Jun ? 23:52:35 10° NNW 23:57:10 29° NNE 00:01:25 10° E visible
22 Jun ? 01:34:20 10° NW 01:39:27 73° SW 01:43:01 17° SSE visible
22 Jun ? 03:18:13 10° W 03:20:09 12° WSW 03:22:01 10° SW visible
22 Jun ? 22:58:15 10° NNW 23:02:16 21° NNE 23:06:03 10° ENE visible
23 Jun ? 00:39:57 10° NW 00:45:05 62° NE 00:49:26 12° SE visible
23 Jun ? 02:22:20 10° WNW 02:26:23 25° WSW 02:28:28 19° SSW visible
23 Jun ? 22:03:44 10° NNW 22:07:13 17° NNE 22:10:32 10° NE visible
23 Jun ? 23:45:39 10° NNW 23:50:28 37° NE 23:54:55 10° ESE visible
24 Jun ? 01:27:31 10° NW 01:32:25 50° WSW 01:34:58 24° S visible
24 Jun ? 22:51:21 10° NNW 22:55:40 25° NNE 22:59:42 10° E visible
25 Jun ? 00:33:02 10° NW 00:38:11 86° NE 00:41:33 19° SE visible
25 Jun ? 02:16:02 10° WNW 02:19:09 17° WSW 02:20:36 15° SW visible
25 Jun ? 23:38:42 10° NNW 23:43:43 48° NE 23:48:12 11° ESE visible
26 Jun ? 01:20:49 10° NW 01:25:17 34° WSW 01:27:15 24° SSW visible
26 Jun ? 22:44:25 10° NNW 22:49:01 30° NNE 22:53:16 10° E visible
